Location: Aulus
(42.7909°N, 1.3399°E)
Time: 19:05:11
(UTC+00:00)

Meteor 1-26 Rocket - Pass Details

Date: 19 May 2025
Orbit: 805 x 928 km, 81.3° (Epoch: 22 June)

Event Time Altitude Azimuth Distance (km) Brightness Sun altitude
Exits shadow 20:53:42 16° 171° (S) 2,152 5.8 -15.1°
Maximum altitude 20:58:21 61° 95° (E) 1,020 4.4 -15.7°
Drops below altitude 10° 21:04:14 10° 17° (NNE) 2,623 7.2 -16.4°
Sets 21:06:46 0° 14° (NNE) 3,578 8.0 -16.7°
